M0SWV Weather Reports


Display with metric or nautical units.
time (UTC)temp
F
wind
direction
speed
MPH
gust
MPH
rain 1hr
in
rain 24hr
in
rain mn
in
humidity
%
barometer
mb
20260508024529 47 0 0.0 0.0 0.00 0.00 0.00 94 1016.5
20260508023037 47 0 0.0 0.0 0.00 0.00 0.00 94 1016.4
20260508021535 46 0 0.0 0.0 0.00 0.00 0.00 94 1016.5
20260508020036 46 0 0.0 0.0 0.00 0.00 0.00 93 1016.4
20260508014530 46 0 0.0 0.0 0.00 0.00 0.00 93 1016.6
20260508013029 46 0 0.0 0.0 0.00 0.00 0.00 92 1016.5
20260508011541 47 0 0.0 0.0 0.00 0.00 0.00 93 1016.5
20260508010036 47 0 0.0 0.0 0.00 0.00 0.00 93 1016.6
20260508004535 47 0 0.0 0.0 0.00 0.00 0.00 92 1016.6
20260508003034 47 0 0.0 0.0 0.00 0.00 0.00 92 1016.7
20260508001544 48 0 0.0 0.0 0.00 0.00 0.00 92 1016.6
20260508000031 48 0 0.0 0.0 0.00 0.00 0.00 92 1016.6
20260507234531 48 0 0.0 0.0 0.00 0.00 0.00 92 1016.6
20260507233034 48 0 0.0 0.0 0.00 0.00 0.00 92 1016.8
20260507231532 48 0 0.0 0.0 0.00 0.00 0.00 91 1016.8
20260507230036 48 0 0.0 0.0 0.00 0.00 0.00 91 1016.8
20260507224536 48 0 0.0 0.0 0.00 0.00 0.00 90 1016.8
20260507223033 48 0 0.0 0.0 0.00 0.00 0.00 90 1016.7
20260507221533 48 0 0.0 0.0 0.00 0.00 0.00 89 1016.8
20260507220031 49 0 0.0 0.0 0.00 0.00 0.00 88 1016.7
20260507214530 49 0 0.0 0.0 0.00 0.00 0.00 87 1016.7
20260507213039 49 0 0.0 0.0 0.00 0.00 0.00 87 1016.8
20260507211545 50 0 0.0 0.0 0.00 0.00 0.00 85 1016.8
20260507210033 50 0 0.0 0.0 0.00 0.00 0.00 82 1016.6
20260507204530 50 0 0.0 0.0 0.00 0.00 0.00 82 1016.5
20260507203031 50 0 0.0 0.0 0.00 0.00 0.00 83 1016.4
20260507201542 50 0 0.0 0.0 0.00 0.00 0.00 81 1016.3
20260507200037 51 0 0.0 0.0 0.00 0.00 0.00 81 1016.2
20260507194533 51 0 0.0 0.0 0.00 0.00 0.00 80 1016.0
20260507193039 51 0 0.0 0.0 0.00 0.00 0.00 79 1015.9
20260507191531 51 0 0.0 1.0 0.00 0.00 0.00 79 1015.9
20260507190029 51 0 0.0 1.0 0.00 0.00 0.00 81 1015.9
20260507184533 51 0 0.0 3.0 0.00 0.00 0.00 81 1015.9
20260507183033 52 0 0.0 1.0 0.00 0.00 0.00 81 1015.9
20260507181529 52 0 0.0 3.0 0.00 0.00 0.00 79 1015.8
20260507180044 53 0 0.0 1.0 0.00 0.00 0.00 77 1015.8
20260507174535 52 0 0.0 2.0 0.00 0.00 0.00 78 1015.8
20260507173041 52 238 2.0 6.0 0.00 0.00 0.00 78 1015.8
20260507171533 52 265 2.0 5.0 0.00 0.00 0.00 77 1015.7
20260507170044 53 288 2.0 8.0 0.00 0.00 0.00 78 1015.9
20260507164530 53 272 2.0 7.0 0.00 0.00 0.00 78 1015.9
20260507163031 54 266 2.0 7.0 0.00 0.00 0.00 78 1015.8
20260507161530 54 0 2.0 7.0 0.00 0.00 0.00 77 1015.6
20260507160032 55 257 0.0 11.0 0.00 0.00 0.00 75 1015.7
20260507154530 55 249 2.0 10.0 0.00 0.00 0.00 72 1015.7
20260507153031 55 229 4.0 10.0 0.00 0.00 0.00 73 1015.6
20260507151529 55 0 3.0 13.0 0.00 0.00 0.00 73 1015.7
20260507150030 57 242 2.0 11.0 0.00 0.00 0.00 72 1015.6
20260507144530 57 223 6.0 11.0 0.00 0.00 0.00 70 1015.7
20260507143030 57 172 4.0 9.0 0.00 0.00 0.00 68 1015.8
20260507141531 58 0 3.0 10.0 0.00 0.00 0.00 68 1015.8
20260507140035 58 82 4.0 10.0 0.00 0.00 0.00 67 1016.0
20260507134530 57 158 3.0 10.0 0.00 0.00 0.00 69 1016.1
20260507133037 58 153 3.0 8.0 0.00 0.00 0.00 65 1016.1
20260507131532 58 124 3.0 9.0 0.00 0.00 0.00 68 1016.1
20260507130036 58 92 5.0 12.0 0.00 0.00 0.00 65 1016.1
20260507124529 58 164 6.0 11.0 0.00 0.00 0.00 67 1016.1
20260507123034 57 195 6.0 12.0 0.00 0.00 0.00 66 1016.2
20260507121533 56 137 3.0 7.0 0.00 0.00 0.00 71 1016.4
20260507120033 56 250 7.0 13.0 0.00 0.00 0.00 70 1016.4
20260507114531 55 205 3.0 9.0 0.00 0.00 0.00 73 1016.4
20260507113029 55 232 4.0 9.0 0.00 0.00 0.00 71 1016.6
20260507111530 56 117 4.0 8.0 0.00 0.00 0.00 72 1016.4
20260507110030 56 246 2.0 7.0 0.00 0.00 0.00 75 1016.5
20260507104532 56 144 3.0 7.0 0.00 0.00 0.00 74 1016.7
20260507103036 55 189 3.0 7.0 0.00 0.00 0.00 77 1016.6
20260507101530 54 0 0.0 3.0 0.00 0.00 0.00 78 1016.8
20260507100031 52 254 1.0 5.0 0.00 0.00 0.00 82 1017.0
20260507094533 51 101 0.0 4.0 0.00 0.00 0.00 84 1017.0
20260507093032 49 119 1.0 4.0 0.00 0.00 0.00 85 1017.0
20260507091538 48 219 1.0 6.0 0.00 0.00 0.00 86 1017.0
20260507090034 47 100 1.0 3.0 0.00 0.00 0.00 87 1017.1
20260507084540 47 0 0.0 3.0 0.00 0.00 0.00 87 1017.1
20260507083030 46 0 0.0 3.0 0.00 0.00 0.00 88 1017.1
20260507081530 46 114 1.0 3.0 0.00 0.00 0.00 88 1017.1
20260507080030 45 0 0.0 0.0 0.00 0.00 0.00 90 1017.2
20260507074533 45 0 0.0 0.0 0.00 0.00 0.00 91 1017.1
20260507073030 44 0 0.0 0.0 0.00 0.00 0.00 91 1017.0
20260507071533 44 0 0.0 0.0 0.00 0.00 0.00 92 1017.0
20260507070039 44 0 0.0 0.0 0.00 0.00 0.00 92 1016.9
20260507064529 43 0 0.0 0.0 0.00 0.00 0.00 92 1016.7
20260507063033 43 0 0.0 1.0 0.00 0.00 0.00 92 1016.8
20260507061533 43 98 1.0 3.0 0.00 0.00 0.00 92 1016.7
20260507060033 43 0 0.0 0.0 0.00 0.00 0.00 92 1016.6
20260507054532 43 0 0.0 0.0 0.00 0.00 0.00 92 1016.6
20260507053033 43 0 0.0 2.0 0.00 0.00 0.00 92 1016.5
20260507051532 43 0 0.0 0.0 0.00 0.00 0.00 92 1016.5
20260507050042 42 0 0.0 1.0 0.00 0.00 0.00 92 1016.5
20260507044534 42 0 0.0 1.0 0.00 0.00 0.00 92 1016.4
20260507043030 43 0 0.0 1.0 0.00 0.00 0.00 91 1016.4
20260507041532 43 0 0.0 2.0 0.00 0.00 0.00 91 1016.2
20260507040031 43 92 0.0 1.0 0.00 0.00 0.00 91 1016.3
20260507034534 43 115 1.0 2.0 0.00 0.00 0.00 91 1016.2
20260507033036 43 0 0.0 3.0 0.00 0.00 0.00 90 1016.2
20260507031537 43 109 0.0 2.0 0.00 0.00 0.00 90 1016.6
20260507030031 43 123 0.0 2.0 0.00 0.00 0.00 90 1016.5